User: anonymous   Login
Location: Pine Mountain Observatory
(43.7910°N, 120.9377°W)
Time: 22:10:19
(UTC-08:00)
Language:

APEX - Orbit

View from above orbital plane
View from above orbital plane
View from above satellite
View from above satellite

Ground track
Ground track

The orbit data is extracted from the following two-line orbital elements,

1 23191U 94046A   17052.20713405  .00005613  00000-0  19481-3 0  9997
2 23191  69.9240 127.9439 0609844  46.8246 318.2202 14.36025145 99898
Epoch (UTC): 21 February 2017 04:58:16
Eccentricity: 0.0609844
inclination: 69.9240°
perigee height: 335 km
apogee height: 1207 km
right ascension of ascending node: 127.9439°
argument of perigee: 46.8246°
revolutions per day: 14.36025145
mean anomaly at epoch: 318.2202°
orbit number at epoch: 9989

The dashed part of the orbit path shows where the satellite is in the earth's shadow,  

DLR